STARLINK-11481, 62230

Orbit data source: Space-Track

STARLINK-11481, 62230 is a payload satellite owned by SpaceX/Seattle (US) in LEO that was launched on Thu, 05 Dec 2024 UTC via an FALCON 9 launch vehicle from the Air Force Western Test Range (AFWTR). Payload-class satellites include a variety of spacecraft equipped with specific instruments for various scientific and technological missions. These include communications satellites like Starlink; space stations such as the ISS; scientific satellites like the Hubble; Earth observation satellites from companies like Planet Labs, Umbra, and HawkEye 360; GPS; miniature CubeSats for education and research; and military/defense satellites.

Loading next visibility...
Identifier
62230, 2024-231N
Orbit
LEO
Last TLE update
4 hours ago
Origin
Manufacturer
SpaceX/Seattle
Mission
Operational Commercial Communications
Bus & Motor
STARLINK V2M, Unknown motor
Mass
730 kg wet, ~700 kg dry
Launch date (UTC)
2024-12-05 (7 months ago)
Launch vehicle
FALCON 9
Launch site
Air Force Western Test Range (AFWTR)
Object type
Payload
Rocket body
Debris
Shape & HBR
Box + 2 Pan, 29 m
Radar Cross Section
36.964 m², Large (>1 m²)

Expand to show TLE details & history

TLE from 4 hours ago
0 STARLINK-11481
1 62230U 24231N   25192.23597822  .00151490  00000-0  12307-2 0  9997
2 62230  53.1557 211.8929 0000544  63.0625 297.0448 15.69746335 35425
Epoch: 2025-07-11T05:39Z
TLE epoch observation values (Epoch: 2025-07-11T05:39:48.518Z)
Latitude
-0.00004°
Longitude
-162.4501°
Altitude
360.371 km
Speed
7.694 km/s
True Right ascension
14h 07m 34s
True Declination
0° 00' 00"
Sunlit
Object was in daylight at epoch
Visualization orbit readout
Latitude
40.37523°
Longitude
-22.50221°
Altitude
362.994 km
Speed
7.697 km/s
Apparent Right ascension
04h 08m 24s
Apparent Declination
6° 16' 42"
Sunlit
Object is in daylight
Visualization observer readout
Local Sidereal Time
21:32:57
Azimuth
79.493° E
Elevation
-2.711°
Doppler factor
1
Orbital elements
Apogee altitude
360.251 km
Perigee altitude
359.518 km
Semi-major axis
6,738.021 km
Eccentricity
0.00005
Inclination
53.1557°
RAAN
211.8929°
Arg. of periapsis
63.0625°
True anomaly
Unknown
Mean anomaly
297.0448°
Eccentric anomaly
Unknown
Mean motion
3.92414 °/min
Orbital period
91.74 mins
BSTAR
0.0012307
Loading maneuver chart data...
Loading SW <> Apogee altitude chart data...
Loading historical data...
Loading historical data...
Loading historical data...
Loading historical data...
Loading historical data...
Loading historical data...
Loading historical data...

STARLINK-11481 Visibility forecast

Observer location: undefined°, undefined°

Span
Click to sort rows by Start time (UTC) header in descending order
Start Az.
Max El. time (UTC)
Max El. Az.
Max El.
End time (UTC)
End Az.
4 mins2025-07-11 10:44:16.304Z327.301° NNW2025-07-11 10:46:16.304Z44.592° NE35.947°2025-07-11 10:48:16.304Z107.37° ESE
|